| time (UTC) | temp F | wind direction | speed knots | gust knots | rain 1hr in | rain 24hr in | rain mn in | humidity % | barometer mb |
| 20260506203036 | 70 | 194 | 2.6 | 4.3 | 0.00 | 0.00 | 0.00 | 61 | 1017.4 |
| 20260506201535 | 69 | 162 | 1.7 | 5.2 | 0.00 | 0.00 | 0.00 | 63 | 1017.6 |
| 20260506200035 | 68 | 153 | 1.7 | 5.2 | 0.00 | 0.00 | 0.00 | 63 | 1017.7 |
| 20260506194533 | 69 | 213 | 0.9 | 6.1 | 0.00 | 0.00 | 0.00 | 60 | 1017.7 |
| 20260506193034 | 70 | 224 | 1.7 | 4.3 | 0.00 | 0.00 | 0.00 | 59 | 1017.8 |
| 20260506191535 | 70 | 171 | 0.9 | 3.5 | 0.00 | 0.00 | 0.00 | 61 | 1017.8 |
| 20260506190030 | 69 | 172 | 1.7 | 5.2 | 0.00 | 0.00 | 0.00 | 61 | 1017.9 |
| 20260506184531 | 69 | 288 | 0.9 | 5.2 | 0.00 | 0.00 | 0.00 | 62 | 1018.0 |
| 20260506183025 | 69 | 251 | 0.9 | 6.1 | 0.00 | 0.00 | 0.00 | 63 | 1018.1 |
| 20260506181525 | 68 | 194 | 2.6 | 5.2 | 0.00 | 0.00 | 0.00 | 64 | 1018.3 |
| 20260506180026 | 68 | 213 | 1.7 | 5.2 | 0.00 | 0.00 | 0.00 | 65 | 1018.3 |
| 20260506174520 | 67 | 166 | 1.7 | 5.2 | 0.00 | 0.00 | 0.00 | 66 | 1018.3 |
| 20260506173018 | 67 | 177 | 0.9 | 4.3 | 0.00 | 0.00 | 0.00 | 68 | 1018.2 |
| 20260506171518 | 66 | 227 | 0.9 | 6.1 | 0.00 | 0.00 | 0.00 | 68 | 1018.3 |
| 20260506170016 | 66 | 126 | 0.9 | 4.3 | 0.00 | 0.00 | 0.00 | 68 | 1018.2 |
| 20260506164517 | 65 | 113 | 0.0 | 2.6 | 0.00 | 0.00 | 0.00 | 70 | 1018.1 |
| 20260506163009 | 63 | 38 | 0.9 | 3.5 | 0.00 | 0.00 | 0.00 | 73 | 1018.1 |
| 20260506161503 | 62 | 155 | 0.9 | 3.5 | 0.00 | 0.00 | 0.00 | 78 | 1018.1 |
| 20260506160059 | 60 | 175 | 0.0 | 2.6 | 0.00 | 0.00 | 0.00 | 83 | 1018.0 |
| 20260506154612 | 59 | 184 | 0.0 | 1.7 | 0.00 | 0.00 | 0.00 | 88 | 1018.0 |
| 20260506153053 | 57 | 186 | 0.0 | 1.7 | 0.00 | 0.00 | 0.00 | 91 | 1018.0 |
| 20260506151551 | 54 | 234 | 0.0 | 0.0 | 0.00 | 0.00 | 0.00 | 93 | 1017.9 |
| 20260506150052 | 53 | 77 | 0.0 | 0.0 | 0.00 | 0.00 | 0.00 | 92 | 1018.1 |
| 20260506144559 | 52 | 77 | 0.0 | 0.0 | 0.00 | 0.00 | 0.00 | 92 | 1017.9 |
| 20260506143048 | 51 | 77 | 0.0 | 0.0 | 0.00 | 0.00 | 0.00 | 92 | 1017.8 |
| 20260506141547 | 50 | 77 | 0.0 | 0.0 | 0.00 | 0.00 | 0.00 | 91 | 1017.8 |
| 20260506140057 | 50 | 77 | 0.0 | 0.0 | 0.00 | 0.00 | 0.00 | 91 | 1017.7 |
| 20260506134543 | 49 | 77 | 0.0 | 0.0 | 0.00 | 0.00 | 0.00 | 91 | 1017.5 |
| 20260506133047 | 49 | 77 | 0.0 | 0.0 | 0.00 | 0.00 | 0.00 | 90 | 1017.4 |
| 20260506131541 | 49 | 78 | 0.0 | 0.0 | 0.00 | 0.00 | 0.00 | 90 | 1017.2 |
| 20260506130042 | 49 | 78 | 0.0 | 0.0 | 0.00 | 0.00 | 0.00 | 90 | 1017.2 |
| 20260506124538 | 49 | 78 | 0.0 | 0.0 | 0.00 | 0.00 | 0.00 | 89 | 1017.1 |
| 20260506123036 | 49 | 78 | 0.0 | 0.0 | 0.00 | 0.00 | 0.00 | 89 | 1017.1 |
| 20260506121535 | 50 | 78 | 0.0 | 0.0 | 0.00 | 0.00 | 0.00 | 89 | 1017.0 |
| 20260506120038 | 50 | 78 | 0.0 | 0.0 | 0.00 | 0.00 | 0.00 | 88 | 1017.1 |
| 20260506114532 | 50 | 78 | 0.0 | 0.0 | 0.00 | 0.00 | 0.00 | 88 | 1017.0 |
| 20260506113030 | 50 | 78 | 0.0 | 0.0 | 0.00 | 0.00 | 0.00 | 87 | 1017.1 |
| 20260506111528 | 51 | 78 | 0.0 | 0.0 | 0.00 | 0.00 | 0.00 | 87 | 1017.0 |
| 20260506110026 | 51 | 78 | 0.0 | 0.0 | 0.00 | 0.00 | 0.00 | 86 | 1016.8 |
| 20260506104524 | 51 | 108 | 0.0 | 0.0 | 0.00 | 0.00 | 0.00 | 86 | 1016.7 |
| 20260506103027 | 52 | 108 | 0.0 | 0.0 | 0.00 | 0.00 | 0.00 | 85 | 1016.7 |
| 20260506101528 | 52 | 108 | 0.0 | 0.0 | 0.00 | 0.00 | 0.00 | 85 | 1016.6 |
| 20260506100029 | 53 | 108 | 0.0 | 0.0 | 0.00 | 0.00 | 0.00 | 84 | 1016.5 |
| 20260506094519 | 54 | 108 | 0.0 | 0.0 | 0.00 | 0.00 | 0.00 | 84 | 1016.6 |
| 20260506093017 | 54 | 108 | 0.0 | 0.0 | 0.00 | 0.00 | 0.00 | 83 | 1016.5 |
| 20260506091512 | 55 | 108 | 0.0 | 0.0 | 0.00 | 0.00 | 0.00 | 82 | 1016.6 |
| 20260506090010 | 55 | 108 | 0.0 | 0.0 | 0.00 | 0.00 | 0.00 | 81 | 1016.6 |
| 20260506084510 | 56 | 108 | 0.0 | 0.0 | 0.00 | 0.00 | 0.00 | 81 | 1016.8 |
| 20260506083009 | 56 | 109 | 0.0 | 0.0 | 0.00 | 0.00 | 0.00 | 80 | 1016.9 |
| 20260506081504 | 56 | 109 | 0.0 | 0.0 | 0.00 | 0.00 | 0.00 | 79 | 1016.9 |
| 20260506073058 | 58 | 119 | 0.0 | 0.9 | 0.00 | 0.00 | 0.00 | 77 | 1016.6 |
| 20260506071558 | 58 | 37 | 0.0 | 0.9 | 0.00 | 0.00 | 0.00 | 76 | 1016.6 |
| 20260506061555 | 59 | 63 | 0.9 | 7.0 | 0.00 | 0.00 | 0.00 | 73 | 1016.0 |
| 20260506044548 | 62 | 333 | 0.9 | 3.5 | 0.00 | 0.00 | 0.00 | 66 | 1015.2 |
| 20260506043042 | 62 | 93 | 0.9 | 7.8 | 0.00 | 0.00 | 0.00 | 65 | 1015.1 |
| 20260506041541 | 63 | 40 | 1.7 | 5.2 | 0.00 | 0.00 | 0.00 | 65 | 1014.8 |
| 20260506040041 | 63 | 140 | 0.0 | 6.1 | 0.00 | 0.00 | 0.00 | 64 | 1014.3 |
| 20260506034536 | 63 | 30 | 2.6 | 5.2 | 0.00 | 0.00 | 0.00 | 63 | 1014.2 |
| 20260506033040 | 64 | 11 | 2.6 | 7.8 | 0.00 | 0.00 | 0.00 | 63 | 1013.9 |
| 20260506031636 | 64 | 258 | 1.7 | 7.8 | 0.00 | 0.00 | 0.00 | 62 | 1013.7 |
| 20260506030035 | 65 | 5 | 2.6 | 7.0 | 0.00 | 0.00 | 0.00 | 60 | 1013.3 |
| 20260506024535 | 66 | 60 | 0.9 | 7.0 | 0.00 | 0.00 | 0.00 | 58 | 1013.2 |
| 20260506023044 | 67 | 290 | 0.0 | 3.5 | 0.00 | 0.00 | 0.00 | 55 | 1013.1 |
| 20260506021535 | 68 | 277 | 0.0 | 3.5 | 0.00 | 0.00 | 0.00 | 54 | 1013.1 |
| 20260506020035 | 69 | 317 | 0.9 | 4.3 | 0.00 | 0.00 | 0.00 | 53 | 1012.9 |
| 20260506014537 | 70 | 103 | 0.0 | 3.5 | 0.00 | 0.00 | 0.00 | 53 | 1012.8 |
| 20260506013032 | 71 | 178 | 0.0 | 2.6 | 0.00 | 0.00 | 0.00 | 53 | 1012.6 |
| 20260506011533 | 71 | 223 | 0.0 | 1.7 | 0.00 | 0.00 | 0.00 | 50 | 1012.5 |
| 20260506010045 | 71 | 186 | 0.0 | 0.9 | 0.00 | 0.00 | 0.00 | 52 | 1012.4 |
| 20260506004530 | 71 | 188 | 0.0 | 2.6 | 0.00 | 0.00 | 0.00 | 50 | 1012.4 |
| 20260506003030 | 71 | 190 | 0.9 | 3.5 | 0.00 | 0.00 | 0.00 | 52 | 1012.4 |
| 20260506001529 | 72 | 162 | 0.9 | 3.5 | 0.00 | 0.00 | 0.00 | 50 | 1012.3 |
| 20260506000029 | 72 | 163 | 0.0 | 0.9 | 0.00 | 0.00 | 0.00 | 49 | 1012.2 |
| 20260505234544 | 72 | 207 | 1.7 | 4.3 | 0.00 | 0.00 | 0.00 | 48 | 1012.0 |
| 20260505233035 | 73 | 291 | 1.7 | 9.6 | 0.00 | 0.00 | 0.00 | 47 | 1012.1 |
| 20260505231531 | 72 | 159 | 0.9 | 4.3 | 0.00 | 0.00 | 0.00 | 48 | 1012.0 |
| 20260505230026 | 72 | 282 | 1.7 | 5.2 | 0.00 | 0.00 | 0.00 | 48 | 1012.2 |
| 20260505224523 | 72 | 195 | 0.9 | 5.2 | 0.00 | 0.00 | 0.00 | 49 | 1012.3 |
| 20260505223022 | 72 | 119 | 0.0 | 5.2 | 0.00 | 0.00 | 0.00 | 50 | 1012.5 |
| 20260505221523 | 72 | 119 | 0.9 | 4.3 | 0.00 | 0.00 | 0.00 | 51 | 1012.7 |
| 20260505220021 | 72 | 78 | 1.7 | 8.7 | 0.00 | 0.00 | 0.00 | 47 | 1012.6 |
| 20260505214536 | 71 | 188 | 0.0 | 7.0 | 0.00 | 0.00 | 0.00 | 54 | 1012.8 |
| 20260505213020 | 70 | 204 | 1.7 | 5.2 | 0.00 | 0.00 | 0.00 | 55 | 1013.1 |
| 20260505211518 | 70 | 249 | 0.9 | 4.3 | 0.00 | 0.00 | 0.00 | 55 | 1013.2 |
| 20260505210019 | 70 | 155 | 0.9 | 6.1 | 0.00 | 0.00 | 0.00 | 54 | 1013.3 |
| 20260505204519 | 71 | 202 | 0.9 | 6.1 | 0.00 | 0.00 | 0.00 | 52 | 1013.1 |